| time (UTC) | temp F | wind direction | speed MPH | gust MPH | rain 1hr in | rain 24hr in | rain mn in | humidity % | barometer mb |
| 20260502164002 | 49 | 0 | 0.0 | 0.0 | 0.00 | 0.56 | 0.00 | 86 | 1012.0 |
| 20260502162002 | 49 | 0 | 0.0 | 0.0 | 0.00 | 0.59 | 0.00 | 85 | 1012.4 |
| 20260502152002 | 50 | 169 | 0.0 | 1.0 | 0.00 | 0.71 | 0.00 | 83 | 1012.5 |
| 20260502122001 | 52 | 188 | 0.0 | 2.0 | 0.00 | 0.88 | 0.71 | 82 | 1012.9 |
| 20260502114002 | 53 | 173 | 1.0 | 3.0 | 0.00 | 1.11 | 0.71 | 83 | 1012.7 |
| 20260502112002 | 54 | 161 | 0.0 | 1.0 | 0.00 | 1.30 | 0.71 | 82 | 1012.6 |
| 20260502110002 | 54 | 158 | 0.0 | 2.0 | 0.00 | 1.50 | 0.71 | 82 | 1012.6 |
| 20260502104001 | 56 | 236 | 0.0 | 1.0 | 0.00 | 1.57 | 0.71 | 81 | 1012.3 |
| 20260502102002 | 56 | 0 | 0.0 | 0.0 | 0.00 | 1.57 | 0.71 | 81 | 1012.0 |
| 20260502070002 | 65 | 320 | 2.0 | 7.0 | 0.00 | 1.66 | 0.71 | 60 | 1010.9 |
| 20260502064002 | 65 | 322 | 2.0 | 8.0 | 0.00 | 1.66 | 0.71 | 60 | 1010.8 |
| 20260502062002 | 65 | 328 | 2.0 | 8.0 | 0.00 | 1.66 | 0.71 | 62 | 1010.7 |
| 20260502060002 | 65 | 315 | 3.0 | 16.0 | 0.00 | 1.66 | 0.71 | 62 | 1010.6 |
| 20260502054002 | 65 | 327 | 4.0 | 13.0 | 0.00 | 1.66 | 0.71 | 59 | 1010.4 |
| 20260502052002 | 65 | 320 | 3.0 | 12.0 | 0.00 | 1.66 | 0.71 | 59 | 1010.3 |
| 20260502050002 | 65 | 325 | 4.0 | 14.0 | 0.00 | 1.66 | 0.71 | 58 | 1010.2 |
| 20260502044001 | 66 | 324 | 4.0 | 15.0 | 0.00 | 1.66 | 0.71 | 57 | 1010.3 |
| 20260502042002 | 65 | 326 | 6.0 | 15.0 | 0.00 | 1.66 | 0.71 | 59 | 1010.3 |
| 20260502040002 | 65 | 317 | 2.0 | 12.0 | 0.00 | 1.66 | 0.71 | 57 | 1010.5 |
| 20260502034002 | 65 | 328 | 5.0 | 15.0 | 0.00 | 1.66 | 0.71 | 58 | 1010.2 |
| 20260502032001 | 65 | 330 | 3.0 | 14.0 | 0.00 | 1.66 | 0.71 | 59 | 1010.2 |
| 20260502030002 | 65 | 329 | 4.0 | 13.0 | 0.00 | 1.66 | 0.71 | 59 | 1009.9 |
| 20260502024002 | 65 | 332 | 4.0 | 11.0 | 0.00 | 1.66 | 0.71 | 59 | 1009.9 |
| 20260502022002 | 65 | 297 | 3.0 | 11.0 | 0.00 | 1.66 | 0.71 | 58 | 1009.6 |
| 20260502020001 | 64 | 328 | 5.0 | 13.0 | 0.00 | 1.66 | 0.71 | 59 | 1009.6 |
| 20260502014002 | 64 | 319 | 5.0 | 16.0 | 0.00 | 1.67 | 0.71 | 60 | 1009.2 |
| 20260502012001 | 64 | 324 | 5.0 | 12.0 | 0.00 | 1.67 | 0.71 | 61 | 1008.9 |
| 20260502010002 | 64 | 324 | 4.0 | 10.0 | 0.00 | 1.67 | 0.71 | 64 | 1008.9 |
| 20260502004001 | 62 | 322 | 5.0 | 18.0 | 0.00 | 1.67 | 0.71 | 62 | 1009.0 |
| 20260502002001 | 63 | 332 | 3.0 | 15.0 | 0.00 | 1.68 | 0.71 | 65 | 1009.0 |
| 20260502000001 | 60 | 344 | 4.0 | 13.0 | 0.00 | 1.72 | 0.71 | 67 | 1008.3 |
| 20260501234001 | 59 | 333 | 3.0 | 9.0 | 0.00 | 1.73 | 0.71 | 70 | 1008.1 |
| 20260501232001 | 59 | 127 | 2.0 | 11.0 | 0.00 | 1.76 | 0.71 | 71 | 1007.9 |
| 20260501230001 | 60 | 331 | 3.0 | 13.0 | 0.00 | 1.78 | 0.71 | 71 | 1007.4 |
| 20260501224002 | 59 | 126 | 1.0 | 5.0 | 0.00 | 1.79 | 0.71 | 71 | 1006.8 |
| 20260501222001 | 58 | 12 | 1.0 | 6.0 | 0.00 | 1.79 | 0.71 | 78 | 1006.6 |
| 20260501220001 | 56 | 126 | 1.0 | 5.0 | 0.00 | 1.79 | 0.71 | 83 | 1006.1 |
| 20260501214001 | 56 | 96 | 1.0 | 4.0 | 0.00 | 1.79 | 0.71 | 84 | 1006.2 |
| 20260501212001 | 54 | 70 | 0.0 | 3.0 | 0.00 | 1.79 | 0.71 | 87 | 1005.8 |
| 20260501210001 | 54 | 20 | 1.0 | 6.0 | 0.00 | 1.79 | 0.71 | 88 | 1006.0 |
| 20260501204003 | 53 | 128 | 1.0 | 2.0 | 0.00 | 1.79 | 0.71 | 89 | 1006.0 |
| 20260501202001 | 53 | 115 | 1.0 | 5.0 | 0.00 | 1.79 | 0.71 | 90 | 1006.2 |
| 20260501200001 | 53 | 132 | 2.0 | 8.0 | 0.00 | 1.79 | 0.71 | 91 | 1006.1 |
| 20260501194001 | 53 | 125 | 2.0 | 7.0 | 0.00 | 1.79 | 0.71 | 92 | 1005.5 |
| 20260501192001 | 52 | 137 | 2.0 | 10.0 | 0.04 | 1.80 | 0.71 | 93 | 1005.1 |
| 20260501190002 | 52 | 91 | 1.0 | 5.0 | 0.12 | 1.80 | 0.71 | 93 | 1004.9 |
| 20260501184001 | 51 | 104 | 1.0 | 7.0 | 0.20 | 1.80 | 0.71 | 93 | 1004.6 |
| 20260501182001 | 51 | 93 | 1.0 | 7.0 | 0.38 | 1.76 | 0.67 | 93 | 1004.2 |
| 20260501180002 | 51 | 323 | 4.0 | 15.0 | 0.40 | 1.67 | 0.58 | 93 | 1003.0 |
| 20260501174002 | 52 | 326 | 6.0 | 21.0 | 0.36 | 1.60 | 0.51 | 93 | 1001.3 |
| 20260501172001 | 53 | 330 | 4.0 | 21.0 | 0.17 | 1.38 | 0.29 | 93 | 1000.0 |